Weather History for KTCL - June, 2013

Change the Weather History Date:

Wednesday, June 5, 2013

  Actual Average Record
Temperature  
Mean Temperature 81 °F 76 °F  
Max Temperature 92 °F 88 °F 100 °F (2011)
Min Temperature 70 °F 65 °F 50 °F (1954)
Cooling Degree Days 16    
Month to date cooling degree days 57  
Year to date cooling degree days 365  
Since 1 June cooling degree days 57  
Growing Degree Days 30 (Base 50)    
Moisture  
Dew Point 70 °F    
Average Humidity 71    
Maximum Humidity 90    
Minimum Humidity 52    
Precipitation  
Precipitation 1.56 in 0.14 in 1.72 in (2013)
Month to date precipitation 1.78 0.76  
Year to date precipitation 23.74 24.16  
Sea Level Pressure  
Sea Level Pressure 29.92 in    
Wind  
Wind Speed 6 mph (SE)    
Max Wind Speed 26 mph    
Max Gust Speed 37 mph    
Visibility 8 miles    
Events Fog , Rain , Thunderstorm    
T = Trace of Precipitation, MM = Missing Value Source: NWS Daily Summary

Daily Weather History Graph

Daily Weather History Graph

Search for Another Location

Airport or City:

Trip Planner

Search our weather history database for the weather conditions in past years. The results will help you decide how hot, cold, wet, or windy it might be!

Date:

Astronomy

Jun. 05, 2013 Rise Set
Actual Time 5:41 AM CDT 7:57 PM CDT
Civil Twilight 5:12 AM CDT 8:25 PM CDT
Nautical Twilight 4:37 AM CDT 9:00 PM CDT
Astronomical Twilight 3:59 AM CDT 9:38 PM CDT
Moon 3:38 AM CDT (6/5) 5:28 PM CDT (6/5)
Length of Visible Light 15h 12m
Length of Day
14h 15m
Waning Crescent, 8% of the Moon is Illuminated
Jun 5
Waning Crescent
Jun 8
New
Jun 16
First Quarter
Jun 23
Full
Jun 29
Last Quarter

Hourly Weather History & Observations

Time (CDT) Temp. Heat Index Dew Point Humidity Pressure Visibility Wind Dir Wind Speed Gust Speed Precip Events Conditions
12:53 AM 73.9 °F - 70.0 °F 87% 29.95 in 9.0 mi Calm Calm - N/A   Mostly Cloudy
1:53 AM 73.9 °F - 69.1 °F 85% 29.94 in 9.0 mi Calm Calm - N/A   Scattered Clouds
2:53 AM 73.9 °F - 69.1 °F 85% 29.93 in 9.0 mi Calm Calm - N/A   Scattered Clouds
3:53 AM 75.9 °F - 70.0 °F 82% 29.94 in 10.0 mi SSE 6.9 mph - N/A   Partly Cloudy
4:53 AM 73.0 °F - 70.0 °F 90% 29.94 in 8.0 mi SSW 3.5 mph - N/A   Clear
5:53 AM 75.0 °F - 71.1 °F 87% 29.96 in 10.0 mi South 5.8 mph - N/A   Clear
6:25 AM 73.4 °F - 71.6 °F 94% 29.97 in 7.0 mi Calm Calm - N/A   Mostly Cloudy
6:53 AM 75.9 °F - 72.0 °F 87% 29.96 in 10.0 mi SSE 5.8 mph - N/A   Overcast
7:21 AM 75.2 °F - 71.6 °F 89% 29.97 in 10.0 mi South 10.4 mph - N/A   Overcast
7:29 AM 77.0 °F - 73.4 °F 89% 29.97 in 10.0 mi South 9.2 mph - N/A   Overcast
7:53 AM 78.1 °F - 73.0 °F 84% 29.96 in 10.0 mi South 8.1 mph - N/A   Overcast
8:03 AM 78.8 °F - 73.4 °F 83% 29.96 in 10.0 mi South 9.2 mph - N/A   Mostly Cloudy
8:19 AM 78.8 °F - 73.4 °F 83% 29.97 in 9.0 mi South 9.2 mph - N/A   Mostly Cloudy
8:53 AM 80.1 °F 84.2 °F 73.0 °F 79% 29.96 in 10.0 mi SSW 10.4 mph - N/A   Mostly Cloudy
9:14 AM 80.6 °F 85.4 °F 73.4 °F 79% 29.97 in 8.0 mi South 5.8 mph - N/A   Mostly Cloudy
9:41 AM 82.4 °F 87.2 °F 71.6 °F 70% 29.97 in 9.0 mi Variable 6.9 mph - N/A   Partly Cloudy
9:53 AM 82.9 °F 88.0 °F 72.0 °F 69% 29.96 in 9.0 mi SSW 9.2 mph - N/A   Mostly Cloudy
10:53 AM 84.9 °F 90.1 °F 71.1 °F 63% 29.96 in 10.0 mi South 4.6 mph - N/A   Scattered Clouds
11:04 AM 84.2 °F 89.6 °F 71.6 °F 66% 29.96 in 10.0 mi SW 4.6 mph - N/A   Mostly Cloudy
11:37 AM 87.8 °F 93.8 °F 71.6 °F 58% 29.96 in 10.0 mi South 6.9 mph - N/A   Scattered Clouds
11:53 AM 87.1 °F 93.6 °F 72.0 °F 61% 29.95 in 10.0 mi Variable 3.5 mph - N/A   Scattered Clouds
12:53 PM 87.1 °F 92.8 °F 71.1 °F 59% 29.93 in 10.0 mi SW 4.6 mph - N/A   Mostly Cloudy
1:53 PM 90.0 °F 96.9 °F 72.0 °F 55% 29.89 in 10.0 mi Variable 5.8 mph - N/A   Scattered Clouds
2:53 PM 91.9 °F 98.4 °F 71.1 °F 50% 29.86 in 10.0 mi SW 9.2 mph - N/A   Partly Cloudy
3:53 PM 91.0 °F 97.6 °F 71.1 °F 52% 29.86 in 10.0 mi SW 6.9 mph - N/A   Clear
4:12 PM 91.4 °F 98.4 °F 71.6 °F 52% 29.86 in 10.0 mi SSW 5.8 mph - N/A Thunderstorm Partly Cloudy
4:53 PM 86.0 °F 90.7 °F 70.0 °F 59% 29.86 in 10.0 mi ESE 4.6 mph - N/A Thunderstorm Mostly Cloudy
5:19 PM 78.8 °F - 66.2 °F 65% 29.91 in 10.0 mi NNE 18.4 mph 33.4 mph N/A Thunderstorm Thunderstorm
5:22 PM 77.0 °F - 68.0 °F 74% 29.93 in 1.0 mi North 25.3 mph 34.5 mph 0.14 in Rain , Thunderstorm Thunderstorms and Rain
5:26 PM 73.4 °F - 69.8 °F 88% 29.93 in 0.2 mi NNE 25.3 mph 36.8 mph 0.40 in Fog , Rain , Thunderstorm Heavy Thunderstorms and Rain
5:37 PM 71.6 °F - 69.8 °F 94% 29.95 in 0.2 mi NNE 17.3 mph 31.1 mph 0.82 in Fog , Rain , Thunderstorm Heavy Thunderstorms and Rain
5:39 PM 71.6 °F - 69.8 °F 94% 29.96 in 0.5 mi NNE 15.0 mph 24.2 mph 0.87 in Fog , Rain , Thunderstorm Heavy Thunderstorms and Rain
5:53 PM 71.1 °F - 69.1 °F 93% 29.94 in 0.5 mi ENE 16.1 mph 23.0 mph 1.25 in Fog , Rain , Thunderstorm Heavy Thunderstorms and Rain
5:59 PM 71.6 °F - 69.8 °F 94% 29.95 in 1.0 mi ENE 9.2 mph 19.6 mph 0.04 in Rain , Thunderstorm Heavy Thunderstorms and Rain
6:07 PM 71.6 °F - 69.8 °F 94% 29.94 in 3.0 mi ENE 11.5 mph - 0.08 in Rain , Thunderstorm Thunderstorms and Rain
6:18 PM 71.6 °F - 69.8 °F 94% 29.93 in 2.0 mi ENE 13.8 mph - 0.23 in Rain , Thunderstorm Heavy Thunderstorms and Rain
6:34 PM 71.6 °F - 68.0 °F 88% 29.93 in 6.0 mi East 12.7 mph - 0.30 in Rain , Thunderstorm Light Thunderstorms and Rain
6:53 PM 70.0 °F - 66.0 °F 87% 29.91 in 8.0 mi East 10.4 mph - 0.31 in Rain , Thunderstorm Light Thunderstorms and Rain
7:01 PM 69.8 °F - 66.2 °F 88% 29.92 in 7.0 mi East 8.1 mph - 0.00 in Rain Light Rain
7:22 PM 71.6 °F - 66.2 °F 83% 29.90 in 8.0 mi East 10.4 mph - 0.01 in Rain , Thunderstorm Light Rain
7:46 PM 71.6 °F - 66.2 °F 83% 29.88 in 7.0 mi SE 8.1 mph - 0.06 in Rain , Thunderstorm Light Thunderstorms and Rain
7:53 PM 71.1 °F - 66.9 °F 87% 29.88 in 5.0 mi SE 8.1 mph - 0.08 in Rain , Thunderstorm Thunderstorms and Rain
8:07 PM 71.6 °F - 66.2 °F 83% 29.87 in 7.0 mi SE 8.1 mph - 0.02 in Rain Light Rain
8:26 PM 71.6 °F - 66.2 °F 83% 29.84 in 7.0 mi SE 12.7 mph 19.6 mph 0.05 in Rain , Thunderstorm Light Thunderstorms and Rain
8:41 PM 69.8 °F - 64.4 °F 83% 29.82 in 9.0 mi ESE 15.0 mph 23.0 mph 0.06 in Rain Light Rain
8:53 PM 70.0 °F - 64.9 °F 84% 29.79 in 8.0 mi SE 13.8 mph 24.2 mph 0.08 in Rain Light Rain
9:53 PM 70.0 °F - 66.9 °F 90% 29.87 in 10.0 mi West 3.5 mph - 0.00 in   Scattered Clouds
10:53 PM 69.1 °F - 66.9 °F 93% 29.90 in 10.0 mi Calm Calm - 0.00 in   Clear
11:53 PM 69.1 °F - 66.9 °F 93% 29.91 in 10.0 mi Calm Calm - N/A   Clear